OBJECT BG, 61789

Orbit data source: Space-Track

You're viewing an uncataloged RSO

Recently launched and/or uncataloged RSOs may have evolving metadata. Metadata may include the following, but is not limited to: Owner, Manufacturer, Bus, Motor, and Mission.

OBJECT BG, 61789 is a satellite in SSO that was launched on Mon, 04 Nov 2024 UTC via a SOYUZ-2-1B launch vehicle from the Vostochny Cosmodrome (VOSTO). Unknown objects in Earth's orbit typically refer to objects detected orbiting the Earth but have not yet been identified or cataloged. These objects could be anything from previously untracked satellites, spent rocket stages, debris from satellite collisions, or even natural meteoroids temporarily captured by Earth's gravity.

Loading next visibility...
Identifier
61789, 2024-199BG
Orbit
SSO
Country
Flag of TBDTBD
Related business
Manufacturer
Sputniks
Mission
Operational Commercial Communications
Bus & Motor
CUBESAT 3U?, Unknown motor
Mass
3 kg wet, 3 kg dry
Launch date (UTC)
2024-11-04 (2 years ago)
Launch vehicle
SOYUZ-2-1B
Launch site
Vostochny Cosmodrome (VOSTO)
Object type
Unknown
Shape & HBR
Box, 0.2 m
Radar Cross Section
0.035 m², Medium (>0.1 m² and < 1m²)

Expand to show TLE details & history
Last TLE update: 4 hours ago

TLE from 4 hours ago
0 OBJECT BG
1 61789U 24199BG  26264.60605372  .00001508  00000-0  13107-3 0  9994
2 61789  97.3177  98.2773 0007238 106.1312 254.0709 14.98344348146474
Epoch: 2026-09-21T14:32Z
TLE epoch observation values (Epoch: 2026-09-21T14:32:43.041Z)
Latitude
-0°
Longitude
-120.38551°
Altitude
576.459 km
Speed
7.572 km/s
True Right ascension
06h 33m 06s
True Declination
0° 00' 00"
Sunlit
Object was in daylight at epoch
Visualization orbit readout
Latitude
Unknown
Longitude
Unknown
Altitude
Unknown
Speed
Unknown
Apparent Right ascension
Unknown
Apparent Declination
Unknown
Sunlit
N/A
Visualization observer readout
Local Sidereal Time
11:59:24
Azimuth
Unknown
Elevation
Unknown
Doppler factor
Unknown
Orbital elements
Apogee altitude
574.031 km
Perigee altitude
563.974 km
Semi-major axis
6,947.14 km
Eccentricity
0.00072
Inclination
97.3177°
RAAN
98.2773°
Arg. of periapsis
106.1312°
True anomaly
253.99116°
Mean anomaly
254.0709°
Eccentric anomaly
254.03103°
Mean motion
3.7483 °/min
Orbital period
96.04 mins
BSTAR
0.00013107
Loading maneuver chart data...
Computing Atmospheric mass density...
Loading historical data...
Loading historical data...
Loading historical data...
Loading historical data...
Loading historical data...
Loading historical data...
Loading historical data...

Documentation

Showing up to 5 results
|